Hlavní strana
METAR-TAF:

METAR-TAF

Letiště :

Morganton, Severní Karolína, Spojené státy americké

zeměpisná šířka: 35-49-17N, zeměpisná délka: 081-36-39W, výška: 387 m

Aktuální stav počasí

Zpráva byla vytvořena před 24 minutami, v 16:35 UTC
Severoseverozápadní vítr 6 kt
Teplota 15°C
Vlhkost vzduchu 29%
Tlak 1019 hPa
Viditelnost: 16.1 km
Jasno

METAR: KMRN 021635Z AUTO 33006KT 10SM CLR 15/M03 A3010 RMK AO2 T01451027

Čas: 12:59 (16:59 UTC)


TAF: chybějící

Stav a předpovědi počasí z více než 4 000 letišť (zprávy METAR a TAF).

Červené a žluté tečky na mapě představují dostupné meteorologické stanice.

Když kurzor umístíte na tečku, zobrazí se název stanice.

Pak kliknutím zobrazíte stav a předpověď počasí.

Chcete-li změnit mapu, kliknutím na zelené tlačítko se znaménkem +mapu přiblížíte, kliknutím na zelené tlačítko se znaménkem – mapu oddálíte a kliknutím na zelené šipky přejdete na sousední mapy.


METAR-TAF: